#timestamp,LO_Frequency,Hit,StdDev 
1540731615.3,286046999.4,N
1540731635.2,286046997.7,N
1540731655.0,286046999.2,N
1540731655.9,286046999.2,N
1540731675.7,286046999.3,N
1540731695.6,286046999.0,N
1540731715.4,286046998.9,N
1540731735.3,286046997.4,N
1540731755.1,286046998.9,N
1540731756.0,286046998.9,N
1540731775.8,286046998.8,N
1540731795.7,286046998.9,N
1540731815.5,286047000.8,N
1540731835.3,286046998.5,N
1540731855.2,286047001.1,N
1540731875.0,286046998.6,N
1540731875.9,286046998.6,N
1540731895.8,286047001.0,N
1540731915.6,286047001.0,N
1540731935.4,286047000.6,N
1540731955.3,286046999.1,N
1540731975.1,286046998.3,N
1540731995.8,286047000.8,N
1540732015.7,286046999.2,N
1540732035.5,286046998.6,N
1540732055.4,286047001.2,N
1540732075.2,286047000.9,N
1540732095.0,286046998.3,N
1540732095.9,286046998.3,N
1540732115.8,286047000.4,N
1540732135.6,286046998.4,N
1540732155.4,286047002.7,N
1540732175.3,286046999.9,N
1540732195.1,286047000.4,N
1540732215.9,286046998.4,N
1540732235.7,286046997.0,N
1540732255.5,286046999.6,N
1540732275.4,286046997.2,N
1540732295.2,286046997.5,N
1540732315.0,286046996.7,N
1540732315.9,286046996.7,N
1540732335.8,286046998.8,N
1540732355.6,286046998.7,N
1540732375.5,286046998.3,N
1540732395.3,286047000.7,N
1540732415.1,286047000.8,N
1540732435.9,286047000.8,N
1540732455.7,286047000.5,N
1540732475.5,286047002.7,N
1540732495.4,286046999.8,N
1540732515.2,286047000.1,N
1540732535.1,286047002.3,N
1540732536.0,286047002.3,N
1540732555.8,286046999.8,N
1540732575.6,286046999.7,N
1540732595.5,286046999.8,N
1540732615.3,286047002.2,N
1540732635.2,286047002.7,N
1540732655.9,286047000.6,N
1540732675.7,286047000.6,N
1540732695.6,286047001.0,N
1540732715.4,286047000.3,N
1540732735.2,286047000.0,N
1540732755.1,286047000.3,N
1540732756.0,286047000.3,N
1540732775.8,286047000.0,N
1540732795.7,286046998.1,N
1540732815.5,286047000.9,N
1540732835.3,286047000.7,N
1540732855.2,286047000.8,N
1540732875.0,286047000.6,N
1540732875.9,286047000.6,N
1540732895.8,286047002.6,N
1540732915.6,286047002.2,N
1540732935.4,286047001.7,N
1540732955.3,286047003.9,Y
1540732975.1,286047001.0,P
1540732995.8,286047000.9,P
1540733015.7,286047000.3,P
1540733035.5,286047000.3,N
1540733055.4,286047004.6,Y
1540733075.2,286047013.9,P
1540733095.0,286047012.3,N
1540733095.9,286047012.3,N
1540733115.8,286047008.0,N
1540733135.6,286047006.6,N
1540733155.4,286047004.7,N
1540733175.3,286047004.8,N
1540733195.1,286047005.9,N
1540733215.9,286047004.2,N
1540733235.7,286047002.1,N
1540733255.5,286047001.4,N
1540733275.4,286047001.5,N
1540733295.2,286047002.7,N
1540733315.0,286047000.1,N
1540733315.9,286047000.1,N
1540733335.8,286047002.8,N
1540733355.6,286047002.3,N
1540733375.4,286047004.1,N
1540733395.3,286047003.7,N
1540733415.1,286047003.6,N
1540733435.9,286047007.5,N
1540733455.7,286047011.3,N
1540733475.5,286047012.8,Y
1540733495.4,286047005.4,P
1540733515.2,286047004.1,P
1540733535.1,286047002.5,P
1540733536.0,286047002.5,N
1540733555.8,286047000.2,N
1540733575.6,286046999.9,N
1540733595.5,286046998.1,N
1540733615.3,286046996.5,N
1540733635.1,286046996.6,N
1540733655.9,286046997.8,N
1540733675.7,286046997.5,N
1540733695.6,286046996.2,N
1540733715.4,286046996.2,N
1540733735.2,286046995.5,N
1540733755.1,286046995.4,N
1540733756.0,286046995.4,N
1540733775.8,286046997.7,N
1540733795.7,286046995.7,N
1540733815.5,286046995.7,N
1540733835.3,286046994.7,N
1540733855.2,286046992.0,N
1540733875.0,286046994.8,N
1540733875.9,286046994.8,N
1540733895.8,286046994.1,N
1540733915.6,286046992.0,N
1540733935.4,286046994.5,N
1540733955.3,286046993.8,N
1540733975.1,286046994.2,N
1540733995.9,286046994.4,N
1540734015.7,286046994.5,N
1540734035.5,286046992.8,N
1540734055.4,286046994.6,N
1540734075.2,286046993.3,N
1540734095.0,286046993.3,N
1540734095.9,286046993.3,Y
1540734115.8,286046997.0,P
1540734135.6,286046996.6,P
1540734155.5,286046998.3,N
1540734175.3,286046998.6,N
1540734195.1,286046999.5,N
1540734215.9,286046999.3,N
1540734235.7,286046996.6,N
1540734255.6,286046999.0,N
1540734275.4,286046998.8,N
1540734295.2,286046999.4,N
1540734315.1,286046996.9,N
1540734316.0,286046996.9,N
1540734335.8,286046999.0,N
1540734355.6,286047011.9,Y
1540734375.5,286047000.9,P
1540734395.3,286047000.1,N
1540734415.2,286047002.8,N
1540734435.9,286046999.7,N
1540734455.7,286047000.3,N
1540734475.6,286047000.4,N
1540734525.4,286047000.2,E
1540734535.4,286047000.4,N
1540734555.2,286046999.8,P
1540734575.0,286047000.3,N
1540734575.9,286047000.3,N
1540734595.8,286047001.2,Y
1540734615.6,286046998.3,P
1540734635.5,286046996.6,P
1540734655.3,286046999.1,N
1540734675.1,286046999.3,N
1540734695.9,286047001.0,N
1540734715.7,286046998.3,N
1540734735.5,286046998.2,N
1540734755.4,286047000.8,N
1540734775.2,286047000.6,N
1540734795.1,286046998.1,N
1540734796.0,286046998.1,N
1540734815.8,286047000.0,N
1540734835.6,286046998.2,N
1540734855.5,286047000.0,N
1540734875.3,286046999.8,N
1540734895.1,286047002.5,N
1540734915.9,286047000.4,N
1540734935.7,286047000.1,N
1540734955.6,286047000.6,N
1540734975.4,286047000.5,N
1540734995.2,286047000.0,N
1540735015.1,286047000.1,N
1540735016.0,286047000.1,N
1540735035.8,286047000.9,N
1540735055.7,286047001.0,N
1540735075.5,286047000.9,N
1540735095.3,286046998.9,N
1540735115.2,286046998.7,N
1540735135.0,286046996.5,N
1540735135.9,286046996.5,N
1540735155.7,286046996.6,N
1540735175.6,286046999.5,N
1540735195.4,286046996.5,N
